Regional Weather Roundup
Issued by NWS Grand Forks, ND

Home | Current Version | Previous Version | Graphics & Text | Print | Product List | Glossary On
Versions: 1 2 3 4 5 6 7 8 9 10 11 12 13 14 15 16 17 18 19 20 21 22 23 24 25 26 27 28 29 30 31 32 33 34 35 36 37 38 39 40 41 42 43 44 45 46 47 48 49 50
537
ASUS43 KFGF 210710
RWRFGF
PRAIRIE TO PINES  WEATHER ROUNDUP
NATIONAL WEATHER SERVICE EASTERN NORTH DAKOTA/GRAND FORKS ND
200 AM CDT SAT OCT 21 2017

 **SATELLITE DATA USED TO AUGMENT SKY COVER AT AUTOMATED STATIONS**
 *****  WEATHER ACROSS EASTERN NORTH DAKOTA  *****

CITY           SKY/WX    TMP DP  RH WIND       PRES   REMARKS
GRAND FORKS    FAIR      68  58  70 S18G32    29.35F
GRAND FRKS AFB FAIR      66  56  70 S23G30    29.34F
DEVILS LAKE    FAIR      61  53  75 S17       29.26F
FARGO          FAIR      68  58  70 S22G35    29.39F
WAHPETON ARPT  NOT AVBL
$$

 ***** WEATHER ACROSS CENTRAL AND WESTERN NORTH DAKOTA  *****

CITY           SKY/WX    TMP DP  RH WIND       PRES   REMARKS
BISMARCK       FAIR      64  40  41 NW16      29.30R
MINOT          FAIR      62  42  47 SW25G32   29.19R
JAMESTOWN      FAIR      63  56  78 S14G22    29.30F
MINOT AFB      FAIR      61  44  54 W23G30    29.17R
GARRISON         N/A     57  32  38 W22G32    29.27R
WILLISTON        N/A    N/A N/A N/A MISG      29.29S
DICKINSON      FAIR      54  34  46 W18       29.36R
HETTINGER      FAIR      51  40  65 W14       29.44R
$$

 *****  OTHER AIRPORT OBSERVATIONS IN OUR AREA  *****

CITY           SKY/WX    TMP DP  RH WIND       PRES   REMARKS
WALHALLA       FAIR     N/A N/A N/A S16G23    29.27F
GRAFTON AIRPOR FAIR      66  57  72 S18G25    29.33F
VALLEY CITY AR FAIR      63  61  94 S10G17    29.36F
CANDO          FAIR      59  59 100 SE18G24   29.25F
CAVALIER APRT  FAIR      64  57  77 S15G23    29.29F
GWINNER        SUNNY     66  57  72 S13G22    29.38S
SHEYENNE NWR     N/A     65  58  78 S14       29.95
ROLLA          FAIR      50  50 100 S5        29.25S
 ***** THE ABOVE OBSERVATIONS ARE NON NWS ARE NOT QUALITY
       CONTROLLED AND MAY MIS-REPORT RAIN FOR SNOW...
$$

  *****  WEATHER ACROSS NORTHERN MINNESOTA  *****

CITY           SKY/WX    TMP DP  RH WIND       PRES   REMARKS
FLAG ISLAND    FAIR      57  50  77 S18       29.44F
WARROAD        FAIR      64  55  72 S15       29.44F
ROSEAU         FAIR      66  57  72 S16       29.42F
HALLOCK        FAIR      68  55  64 S23G30    29.33F
THF RVR FALLS  FAIR      66  55  67 S21       29.43F
BAUDETTE       FAIR      66  51  58 S13G22    29.49F
WASKISH        FAIR      66  52  59 S13G20    29.52S
CROOKSTON      FAIR      70  57  64 S26G32    29.39F
STEPHEN NDAWN    N/A     68  55  64 S22         N/A
GREENBUSH NDAW   N/A     64  55  72 S14         N/A
$$
  *****  WEATHER ACROSS CENTRAL AND WEST MINNESOTA  *****

CITY           SKY/WX    TMP DP  RH WIND       PRES   REMARKS
FOSSTON        FAIR      64  54  68 S16G23    29.47S
BEMIDJI        MOCLDY    65  53  66 S20G26    29.53F
PARK RAPIDS    MOCLDY    64  55  72 S17G32    29.54F
ELBOW LAKE     FAIR      64  57  78 SE24G31   29.50S
WADENA         FAIR      63  54  72 S20G29    29.54S
DETROIT LAKES  FAIR      64  55  72 S17G25    29.50S
MOORHEAD       FAIR      66  57  72 S23G35    29.42S
FERGUS FALLS   FAIR      64  55  72 S23G30    29.48S
MORRIS MN      FAIR      64  57  77 S21G26    29.50S
STAPLES        MOCLDY    64  54  68 S18G26    29.58S
$$
  *****  WEATHER ELSEWHERE ACROSS MINNESOTA  *****

CITY           SKY/WX    TMP DP  RH WIND       PRES   REMARKS
DULUTH         FAIR      61  48  62 S15       29.72S
INTRNTL FALLS  FAIR      66  46  48 S9G22     29.56F
ELY            FAIR      61  43  51 S7        29.69S
CLOQUET        FAIR      64  46  52 S10G16    29.71S
WHEATON        FAIR      66  55  68 SE16G23   29.47S
BRAINERD       MOCLDY    63  52  67 S15G24    29.62F
HIBBING        FAIR      61  46  57 S10       29.67S
ALEXANDRIA     FAIR      64  55  72 S21G35    29.56F
SAINT CLOUD    FAIR      64  55  72 S18G26    29.65S
MINNEAPOLIS    MOCLDY    64  54  69 S14G22    29.73S
$$

  *****  WEATHER ACROSS SOUTH DAKOTA  *****

CITY           SKY/WX    TMP DP  RH WIND       PRES   REMARKS
SIOUX FALLS    FAIR      67  58  72 S20G26    29.55R
BROOKINGS      FAIR      65  57  75 S23G31    29.51S
WATERTOWN      FAIR      64  58  80 S22       29.47R
HURON          FAIR      67  58  72 S17G24    29.42S
SISSETON         N/A     69  59  70 S22G30    29.42S
ABERDEEN       FAIR      65  58  78 S15       29.37F
MITCHELL       FAIR      69  58  67 S23G30    29.45S
PIERRE         FAIR      62  53  72 S8        29.35S
MOBRIDGE       FAIR      63  53  70 S7        29.33R
RAPID CITY     LGT RAIN  56  41  57 N9G22     29.56R
$$

  *****  SOME WEATHER IN NEARBY STATES *****

CITY           SKY/WX    TMP DP  RH WIND       PRES   REMARKS
GLASGOW MT     FAIR      46  37  71 W22G29    29.44R
GREAT FALLS MT FAIR      39  25  57 SW21G29   29.69R
CHEYENNE WY    FAIR      41  25  53 NW29G49   29.65R
SCOTTSBLUFF NE MOCLDY    53  35  50 W25G35    29.57S
OMAHA NE       TSTM      66  57  72 S21G31    29.66F
DES MOINES IA  FAIR      63  54  72 S14       29.80F
DAVENPORT IA   FAIR      65  50  58 S17G23    29.98S
CHICAGO IL     CLOUDY    65  48  54 S13       30.05R
EAU CLAIRE WI  FAIR      65  45  48 S13       29.82F
LA CROSSE WI   FAIR      67  49  52 S20       29.85F
$$

  *****  SOME NATIONAL WEATHER *****

CITY           SKY/WX    TMP DP  RH WIND       PRES   REMARKS
LA GUARDIA NY  FAIR      63  40  42 NW7       30.24R
RALEIGH NC     FAIR      52  52 100 CALM      30.26F
ATLANTA GA     MOCLDY    58  48  69 E5        30.22S
NEW ORLEANS LA MOCLDY    76  72  87 SE13      30.04R
OKLAHOMA CITY  CLOUDY    69  63  81 S25G32    29.84F
ALBUQUERQUE NM MOCLDY    56  32  40 S3        29.88R
SALT LAKE CITY MOCLDY    39  28  64 NE5       30.03R
LOS ANGELES CA FAIR      66  34  30 N9        29.96R
BOISE ID       FAIR      39  32  76 CALM      30.04R
SEATTLE WA     MOCLDY    48  40  73 S10       29.93F
$$

*** WEATHER ACROSS MANITOBA...SASKATCHEWAN AND ONTARIO ***
                ***ONTARIO***

CITY           SKY/WX    TMP DP  RH WIND       PRES   REMARKS
GERALDTON      PTCLDY    43  41  93 E5        29.83R
THUNDER BAY    PTCLDY    41  41 100 CALM      29.76S
SIOUX LOOKOUT  MOCLDY    61  46  59 SE6       29.59F
TORONTO        CLEAR     52  39  62 SW3       30.18S
BIG TROUT LK   CLOUDY    39  34  81 SE10G23   29.74F
PICKLE LAKE    NOT AVBL
DRYDEN         MOCLDY    61  46  59 S14       29.57F
KENORA         MOCLDY    64  50  59 S13G18    29.48F
$$
                *** MANITOBA***

CITY           SKY/WX    TMP DP  RH WIND       PRES   REMARKS
BRANDON        PTCLDY    46  45  93 E10       29.20S
DAUPHIN        CLEAR     41  39  93 S3        29.18S
ISLAND LAKE    MOCLDY    48  39  71 E20G26    29.42F
PILOT MOUND      N/A     61  52  72 S20         N/A
THE PAS        PTCLDY    43  37  81 NE6       29.23F
THOMPSON       NOT AVBL
WINNIPEG       CLOUDY    66  54  63 S21G30    29.29F
LYNN LAKE      CLOUDY    36  36 100 E7        29.42S
CHURCHILL      MOCLDY    36  32  87 SE26G36   29.76F
GILLAM         CLOUDY    36  30  80 E7        29.59R
$$
                ***SASKATCHEWAN***

CITY           SKY/WX    TMP DP  RH WIND       PRES   REMARKS
ESTEVAN        PTCLDY    50  32  50 W25G35    29.24R
KINDERSLEY     CLOUDY    43  39  87 NW18G29   29.39R
LLOYDMINSTER   LGT RAIN  41  39  93 NW12G18   29.42S
PRINCE ALBERT  PTCLDY    37  34  87 CALM      29.29R
REGINA         CLOUDY    45  36  70 W22G28    29.27R
YORKTON        CLOUDY    43  37  81 SE5       29.17R
N. BATTLEFORD  CLOUDY    45  37  76 NW17G24   29.37R
LA RONGE       PTCLDY    37  34  87 N7        29.33S
SASKATOON      PTCLDY    39  34  81 W8        29.32R
SWIFT CURRENT  CLOUDY    43  37  81 NW18      29.36R
$$
NOTE: THESE ARE AUTOMATED STATIONS WITH LIMITED QUALITY CONTROL
      "FAIR" INDICATES FEW OR NO CLOUDS BELOW 12,000 FEET WITH NO
      SIGNIFICANT WEATHER AND/OR OBSTRUCTIONS TO VISIBILITY.
      SKY/WX - SKY CONDITION AND SIGNIFICANT WEATHER.
      TMP - AIR TEMPERATURE.    DP   - DEWPOINT TEMPERATURE.
      RH  - RELATIVE HUMIDITY.  PRES - PRESSURE.
      HX  - HEAT INDEX.         WCI  - WIND CHILL INDEX.
$




USA.gov is the U.S. government's official web portal to all federal, state and local government web resources and services.